Location: *
(33.9572°S, 62.5816°E)
Time: 04:34:36
(UTC+00:00)

Daily predictions for brighter satellites

Satellite Brightness Start Highest point End
(mag) Time Altitude Azimuth Time Altitude Azimuth Time Altitude Azimuth
FENGYUN 3A 3.8 00:00:39 10° N 00:05:58 55° W 00:11:20 10° SSW
Cosmos 407 Rocket 3.4 00:01:20 10° SSW 00:06:36 80° WNW 00:11:44 10° NNE
Meteor 1-31 Rocket 2.7 00:03:06 10° N 00:06:59 69° W 00:10:54 10° SSW
Cosmos 1892 Rocket 3.6 00:03:39 10° S 00:08:06 83° E 00:12:27 10° N
Cosmos 304 Rocket 3.9 00:04:26 10° NNW 00:09:15 83° ENE 00:14:09 10° SSE
Cosmos 2369 Rocket 2.9 00:06:50 12° NW 00:11:40 36° WSW 00:16:53 10° S
Cosmos 1140 Rocket 3.5 00:07:19 10° SSW 00:12:37 89° W 00:17:48 10° NNE
Cosmos 1758 3.3 00:10:02 10° NNW 00:14:01 72° W 00:18:03 10° S
Cosmos 1634 Rocket 4.0 00:08:17 10° NNW 00:14:30 73° W 00:20:46 10° S
SL-16 R/B 4.3 00:12:55 10° SW 00:15:31 13° WSW 00:18:06 10° W
SL-14 R/B 3.7 00:12:40 10° SSW 00:16:20 38° W 00:19:58 10° NNW
Meteor 2-10 4.3 00:11:58 10° N 00:17:39 90° E 00:23:29 10° S
Meteor 1-24 Rocket 3.8 00:13:23 10° SSW 00:18:34 51° W 00:23:44 10° NNW
Cosmos 1818 4.1 00:13:42 10° NW 00:18:48 41° WSW 00:23:55 10° SSE
CZ-2C R/B 4.0 00:18:02 10° WNW 00:20:12 13° W 00:22:22 10° WSW
BREEZE-M DEB (TANK) 2.6 00:17:27 10° WNW 00:22:10 40° SW 00:24:23 10° SSE
Yuri Rocket 4.0 00:19:47 10° WNW 00:25:09 43° N 00:29:25 10° ENE
Cosmos 1726 2.0 00:21:54 10° NNW 00:25:31 72° W 00:29:14 10° S
Cosmos 1420 Rocket 4.2 00:20:53 10° NNW 00:26:01 58° WSW 00:31:17 10° S
CZ-4B R/B 4.3 00:23:45 10° NNW 00:27:09 33° W 00:30:33 10° SSW
Cosmos 1092 Rocket 4.1 00:22:53 10° SSW 00:28:56 55° W 00:34:54 10° NNW
Cosmos 1455 Rocket 3.5 00:25:54 10° NNW 00:30:09 43° W 00:34:28 10° S
OAO 3 Rocket 3.3 00:25:43 10° W 00:30:31 78° S 00:35:26 10° E
USA 229 DEB 4.1 00:26:44 10° SSW 00:33:27 67° ESE 00:39:47 10° NE
USA 229 4.1 00:26:50 10° SSW 00:33:33 66° ESE 00:39:53 10° NE
